Weather History for Mount Pleasant, SC

Change the Weather History Date:

Monday, October 15, 2012

  Actual Average (KCHS) Record (KCHS)
Temperature  
Mean Temperature 71 °F 67 °F  
Max Temperature 80 °F 77 °F 87 °F (1985)
Min Temperature 62 °F 57 °F 40 °F (1988)
Degree Days  
Heating Degree Days 0 2  
Month to date heating degree days 18  
Since 1 July heating degree days 21  
Cooling Degree Days 6 4  
Month to date cooling degree days 82  
Year to date cooling degree days 2220  
Growing Degree Days 21 (Base 50)    
Moisture  
Dew Point 67 °F    
Average Humidity 86    
Maximum Humidity 100    
Minimum Humidity 65    
Precipitation  
Precipitation 0.15 in 0.12 in 3.89 in (1954)
Month to date precipitation 2.11  
Year to date precipitation 43.85  
Sea Level Pressure  
Sea Level Pressure 29.89 in    
Wind  
Wind Speed 3 mph (SW)    
Max Wind Speed 13 mph    
Max Gust Speed 17 mph    
Visibility 9 miles    
Events Rain , Thunderstorm    
T = Trace of Precipitation, MM = Missing Value Source: NWS Daily Summary

Daily Weather History Graph

Daily Weather History Graph

Search for Another Location

Airport:

Trip Planner

Search our weather history database for the weather conditions in past years. The results will help you decide how hot, cold, wet, or windy it might be!

Date:

Astronomy

Oct. 15, 2012 Rise Set
Actual Time 7:23 AM EDT 6:45 PM EDT
Civil Twilight 6:58 AM EDT 7:10 PM EDT
Nautical Twilight 6:30 AM EDT 7:38 PM EDT
Astronomical Twilight 6:01 AM EDT 8:07 PM EDT
Moon 7:29 AM EDT (10/15) 6:48 PM EDT (10/15)
Length of Visible Light 12h 11m
Length of Day
11h 21m
Waxing Crescent, 0% of the Moon is Illuminated
Oct 15
Waxing Crescent
Oct 21
First Quarter
Oct 29
Full
Nov 6
Last Quarter
Nov 13
New

Hourly Weather History & Observations

Time (EDT) Temp. Heat Index Dew Point Humidity Pressure Visibility Wind Dir Wind Speed Gust Speed Precip Events Conditions
12:15 AM 62.6 °F - 62.6 °F 100% 30.05 in 10.0 mi Calm Calm - N/A Rain Light Rain
12:35 AM 64.4 °F - 62.6 °F 94% 30.05 in 8.0 mi Calm Calm - 0.01 in Rain Light Rain
12:55 AM 62.6 °F - 62.6 °F 100% 30.03 in 9.0 mi Calm Calm - 0.02 in Rain Light Rain
1:15 AM 62.6 °F - 62.6 °F 100% 30.03 in 2.5 mi Calm Calm - N/A Rain Light Rain
1:55 AM 62.6 °F - 62.6 °F 100% 30.02 in 9.0 mi Calm Calm - 0.03 in Rain Light Rain
2:15 AM 62.6 °F - 62.6 °F 100% 30.00 in 9.0 mi SE 5.8 mph - N/A Rain Light Rain
2:35 AM 62.6 °F - 60.8 °F 94% 30.00 in 10.0 mi SSE 4.6 mph - 0.02 in Rain Light Rain
2:55 AM 62.6 °F - 62.6 °F 100% 29.99 in 10.0 mi Calm Calm - 0.04 in Rain Light Rain
3:15 AM 62.6 °F - 62.6 °F 100% 29.99 in 10.0 mi Calm Calm - 0.01 in Rain Light Rain
3:55 AM 62.6 °F - 62.6 °F 100% 29.97 in 10.0 mi Calm Calm - 0.04 in Rain Light Rain
4:15 AM 62.6 °F - 62.6 °F 100% 29.96 in 9.0 mi Calm Calm - 0.01 in Rain Light Rain
4:35 AM 62.6 °F - 62.6 °F 100% 29.95 in 8.0 mi Calm Calm - 0.02 in   Clear
4:55 AM 62.6 °F - 62.6 °F 100% 29.95 in 8.0 mi Calm Calm - 0.02 in   Clear
5:15 AM 62.6 °F - 62.6 °F 100% 29.95 in 9.0 mi Calm Calm - N/A   Clear
5:55 AM 62.6 °F - 62.6 °F 100% 29.96 in 9.0 mi Calm Calm - N/A   Partly Cloudy
6:15 AM 62.6 °F - 62.6 °F 100% 29.96 in 8.0 mi Calm Calm - N/A   Partly Cloudy
6:35 AM 62.6 °F - 62.6 °F 100% 29.96 in 10.0 mi Calm Calm - N/A   Partly Cloudy
6:55 AM 62.6 °F - 62.6 °F 100% 29.96 in 8.0 mi Calm Calm - N/A   Clear
7:15 AM 62.6 °F - 62.6 °F 100% 29.96 in 10.0 mi Calm Calm - N/A   Clear
7:35 AM 62.6 °F - 62.6 °F 100% 29.95 in 7.0 mi Calm Calm - N/A   Clear
7:55 AM 62.6 °F - 62.6 °F 100% 29.95 in 9.0 mi Calm Calm - N/A   Clear
8:15 AM 64.4 °F - 64.4 °F 100% 29.96 in 9.0 mi Calm Calm - N/A   Partly Cloudy
8:35 AM 64.4 °F - 64.4 °F 100% 29.96 in 9.0 mi Calm Calm - N/A   Scattered Clouds
8:55 AM 66.2 °F - 66.2 °F 100% 29.97 in 9.0 mi Calm Calm - N/A   Mostly Cloudy
9:15 AM 69.8 °F - 68.0 °F 94% 29.97 in 9.0 mi Calm Calm - N/A   Scattered Clouds
9:35 AM 73.4 °F - 69.8 °F 88% 29.97 in 8.0 mi SW 3.5 mph - N/A   Partly Cloudy
9:55 AM 73.4 °F - 69.8 °F 88% 29.97 in 8.0 mi SW 3.5 mph - N/A   Partly Cloudy
10:15 AM 75.2 °F - 69.8 °F 83% 29.97 in 9.0 mi SW 4.6 mph - N/A   Clear
10:35 AM 77.0 °F - 69.8 °F 78% 29.96 in 8.0 mi WSW 3.5 mph - N/A   Clear
10:55 AM 78.8 °F - 69.8 °F 74% 29.96 in 9.0 mi WSW 6.9 mph - N/A   Clear
11:15 AM 78.8 °F - 69.8 °F 74% 29.95 in 9.0 mi SW 6.9 mph - N/A   Scattered Clouds
11:35 AM 78.8 °F - 69.8 °F 74% 29.94 in 10.0 mi SW 6.9 mph - N/A   Partly Cloudy
11:55 AM 80.6 °F 83.9 °F 69.8 °F 70% 29.94 in 9.0 mi SW 12.7 mph - N/A   Partly Cloudy
12:15 PM 80.6 °F 83.9 °F 69.8 °F 70% 29.92 in 8.0 mi WSW 10.4 mph - N/A   Scattered Clouds
12:55 PM 80.6 °F 83.2 °F 68.0 °F 65% 29.89 in 9.0 mi SW 10.4 mph - N/A   Partly Cloudy
1:15 PM 80.6 °F 83.2 °F 68.0 °F 65% 29.88 in 8.0 mi SW 10.4 mph 17.3 mph N/A   Partly Cloudy
1:35 PM 80.6 °F 83.2 °F 68.0 °F 65% 29.86 in 8.0 mi SSW 8.1 mph - N/A Rain Light Rain
2:15 PM 80.6 °F 83.2 °F 68.0 °F 65% 29.84 in 8.0 mi SSW 11.5 mph 17.3 mph N/A   Partly Cloudy
2:35 PM 80.6 °F 83.9 °F 69.8 °F 70% 29.83 in 9.0 mi SSW 12.7 mph 17.3 mph N/A   Scattered Clouds
2:55 PM 80.6 °F 83.9 °F 69.8 °F 70% 29.82 in 8.0 mi SW 9.2 mph - N/A   Scattered Clouds
3:15 PM 80.6 °F 83.9 °F 69.8 °F 70% 29.81 in 8.0 mi SSW 12.7 mph - N/A   Mostly Cloudy
3:35 PM 80.6 °F 83.9 °F 69.8 °F 70% 29.80 in 9.0 mi SSW 8.1 mph - N/A   Mostly Cloudy
3:55 PM 80.6 °F 83.9 °F 69.8 °F 70% 29.80 in 9.0 mi SSW 12.7 mph - N/A   Partly Cloudy
4:15 PM 78.8 °F - 69.8 °F 74% 29.79 in 8.0 mi SW 8.1 mph - N/A Thunderstorm Clear
4:35 PM 78.8 °F - 69.8 °F 74% 29.79 in 8.0 mi SW 9.2 mph - N/A   Clear
4:55 PM 78.8 °F - 69.8 °F 74% 29.79 in 8.0 mi SSW 8.1 mph - N/A Rain Light Rain
5:15 PM 80.6 °F 83.9 °F 69.8 °F 70% 29.79 in 8.0 mi SW 10.4 mph - N/A Rain Light Rain
5:35 PM 78.8 °F - 69.8 °F 74% 29.78 in 7.0 mi SSW 10.4 mph - N/A   Clear
5:55 PM 78.8 °F - 69.8 °F 74% 29.78 in 8.0 mi SW 6.9 mph - N/A Thunderstorm Partly Cloudy
6:15 PM 78.8 °F - 69.8 °F 74% 29.78 in 8.0 mi SSW 6.9 mph - N/A Rain , Thunderstorm Light Thunderstorms and Rain
6:35 PM 77.0 °F - 69.8 °F 78% 29.79 in 8.0 mi SW 6.9 mph - N/A Rain , Thunderstorm Light Thunderstorms and Rain
6:55 PM 75.2 °F - 69.8 °F 83% 29.79 in 7.0 mi WSW 5.8 mph - N/A Rain Light Rain
7:15 PM 75.2 °F - 68.0 °F 78% 29.79 in 10.0 mi SW 6.9 mph - N/A Rain Light Rain
7:35 PM 73.4 °F - 69.8 °F 88% 29.79 in 9.0 mi SW 4.6 mph - N/A Rain , Thunderstorm Light Rain
7:55 PM 73.4 °F - 69.8 °F 88% 29.79 in 10.0 mi WSW 4.6 mph - N/A Rain , Thunderstorm Light Rain
8:15 PM 73.4 °F - 69.8 °F 88% 29.80 in 9.0 mi SW 3.5 mph - N/A Rain Light Rain
8:35 PM 73.4 °F - 69.8 °F 88% 29.81 in 8.0 mi SSW 4.6 mph - N/A Rain Light Rain
8:55 PM 73.4 °F - 69.8 °F 88% 29.81 in 8.0 mi SW 4.6 mph - N/A   Partly Cloudy
9:15 PM 71.6 °F - 69.8 °F 94% 29.81 in 10.0 mi WSW 5.8 mph - N/A Rain , Thunderstorm Light Rain
9:35 PM 71.6 °F - 69.8 °F 94% 29.81 in 10.0 mi WSW 3.5 mph - N/A   Clear
9:55 PM 71.6 °F - 69.8 °F 94% 29.82 in 10.0 mi WSW 3.5 mph - N/A Rain Light Rain
10:15 PM 71.6 °F - 68.0 °F 88% 29.82 in 9.0 mi West 3.5 mph - N/A   Clear
10:35 PM 69.8 °F - 68.0 °F 94% 29.83 in 10.0 mi West 4.6 mph - N/A Rain Light Rain
10:55 PM 71.6 °F - 66.2 °F 83% 29.83 in 10.0 mi WNW 5.8 mph - N/A   Clear
11:15 PM 71.6 °F - 64.4 °F 78% 29.84 in 10.0 mi WNW 6.9 mph - N/A Rain Light Rain
11:35 PM 69.8 °F - 60.8 °F 73% 29.84 in 10.0 mi NW 8.1 mph - N/A Rain Light Rain
11:55 PM 69.8 °F - 60.8 °F 73% 29.84 in 10.0 mi NW 5.8 mph - N/A   Clear